[[{"header":{"parameterUnit":"m.s-1","parameterCategory":1,"la1":30.2991,"la2":30.254,"lo1":-89.0895,"lo2":-89.0444,"dy":0.0017,"dx":0.0017,"nx":28,"ny":28,"refTime":"2024-04-25T09:00:00:Z","depth":0,"parameterNumber":2,"parameterNumberName":"U-component_of_WINDS"},"data":[0,0,0,0,0,0,0,0,0,0,0,0,0,0,0,0,0,0,0,0,0,0,0,0,0,0,0,0,0,0,0,0,0,0,0,0,0,0,0,0,0,0,0,0,0,0,0,0,0,0,0,0,0,0,0,0,0,0,-0.883,-0.883,0,-0.8856,-0.8856,-0.8857,-0.8852,-0.8852,-0.8851,-0.8851,-0.8879,-0.888,-0.8881,0,0,0,0,0,0,0,0,0,0,0,0,0,-0.8777,-0.8778,-0.883,-0.883,-0.883,-0.8856,-0.8856,-0.8857,-0.8852,-0.8852,-0.8851,-0.8851,-0.8878,-0.888,-0.8881,0,0,0,0,0,0,0,0,0,0,0,0,0,-0.8801,-0.8779,-0.883,-0.8831,-0.8832,-0.8856,-0.8856,-0.8857,-0.8852,-0.8852,-0.8851,-0.885,-0.8878,-0.8879,-0.8881,-0.8906,0,0,-0.8887,-0.8887,0,0,0,0,0,0,0,0,-0.88,-0.8803,-0.8831,-0.8831,-0.8832,-0.885,-0.8848,-0.8873,-0.8853,-0.8845,-0.8851,-0.885,-0.887,-0.8872,-0.8879,-0.8907,-0.8908,-0.8887,-0.8888,-0.8888,-0.8889,0,0,0,0,0,0,0,-0.8798,-0.8802,-0.884,-0.8831,-0.8832,-0.8831,-0.8834,-0.8853,-0.8861,-0.8845,-0.8845,-0.8848,-0.887,-0.8877,-0.8879,-0.8909,-0.8887,-0.8888,-0.8889,-0.889,-0.8959,-0.896,0,0,0,0,0,0,-0.8796,-0.8801,-0.8839,-0.8841,-0.8814,-0.8833,-0.8836,-0.8845,-0.886,-0.8862,-0.8849,-0.8848,-0.8874,-0.8877,-0.888,-0.891,-0.8888,-0.889,-0.8891,-0.8959,-0.8959,-0.896,0,0,0,0,0,0,-0.8795,-0.8799,-0.8838,-0.8821,-0.8826,-0.8834,-0.8845,-0.8846,-0.8853,-0.8863,-0.8865,-0.8854,-0.8874,-0.8878,-0.89,-0.8911,-0.8891,-0.8892,-0.8958,-0.8959,-0.896,-0.8971,0,0,0,0,0,0,-0.8793,-0.8799,-0.8808,-0.8821,-0.8827,-0.8857,-0.8845,-0.8847,-0.8856,-0.8855,-0.8869,-0.887,-0.8874,-0.8897,-0.8901,-0.8913,-0.8894,-0.8957,-0.8958,-0.896,-0.8969,-0.8972,-0.8975,0,0,0,0,0,-0.8792,-0.881,-0.8809,-0.8813,-0.8838,-0.8857,-0.8861,-0.8864,-0.8857,-0.8866,-0.8873,-0.887,-0.8909,-0.8899,-0.8904,-0.8917,-0.8956,-0.8958,-0.8959,-0.8968,-0.8972,-0.8975,0,0,0,0,0,0,-0.8799,-0.8812,-0.881,-0.8833,-0.8844,-0.8857,-0.8869,-0.8867,-0.888,-0.8879,-0.8883,-0.8886,-0.8908,-0.8915,-0.8903,-0.8942,-0.8932,-0.8934,-0.8937,-0.894,-0.8943,-0.8941,-0.8895,0,0,0,0,0,-0.8803,-0.8817,-0.8828,-0.8847,-0.8853,-0.886,-0.8868,-0.887,-0.8881,-0.8886,-0.8894,-0.8906,-0.8921,-0.8931,-0.8945,-0.897,-0.8974,-0.8982,-0.8984,-0.8986,-0.8989,-0.9003,-0.9007,-0.8966,-0.8966,-0.8966,0,0,-0.8812,-0.8821,-0.8829,-0.8849,-0.8858,-0.8873,-0.8864,-0.888,-0.8892,-0.8889,-0.891,-0.8916,-0.893,-0.8953,-0.8964,-0.896,-0.9001,-0.8989,-0.899,-0.8992,-0.9006,-0.901,-0.9013,-0.8967,-0.8967,-0.8967,0,0,-0.8836,-0.8844,-0.8861,-0.887,-0.8883,-0.8888,-0.8892,-0.8905,-0.8909,-0.893,-0.8929,-0.8943,-0.8968,-0.8978,-0.8986,-0.9015,-0.9013,-0.9019,-0.9033,-0.9047,-0.905,-0.9053,-0.9064,-0.9068,-0.9022,-0.9022,-0.9022,0,-0.8845,-0.8868,-0.887,-0.8887,-0.8896,-0.8894,-0.8912,-0.8921,-0.8938,-0.8945,-0.8939,-0.8972,-0.898,-0.9007,-0.9014,-0.902,-0.9026,-0.9018,-0.905,-0.9053,-0.9055,-0.9066,-0.907,-0.9023,-0.9022,-0.9022,-0.9022,0,-0.8879,-0.8895,-0.8907,-0.8924,-0.8935,-0.8952,-0.8958,-0.8968,-0.8969,-0.8974,-0.8996,-0.9007,-0.9024,-0.903,-0.9031,-0.9057,-0.9054,-0.9049,-0.9039,-0.906,-0.907,-0.9074,-0.9024,-0.9023,-0.9023,-0.9023,0,0,-0.8908,-0.8926,-0.8931,-0.8939,-0.8954,-0.8966,-0.8984,-0.9,-0.9009,-0.9021,-0.9037,-0.9059,-0.9055,-0.9064,-0.9066,-0.9078,-0.9101,-0.9072,-0.9073,-0.9078,-0.9132,-0.9136,-0.914,-0.91,-0.9101,-0.9101,-0.9131,0,-0.8934,-0.8965,-0.8968,-0.8996,-0.9011,-0.9009,-0.9025,-0.9036,-0.9041,-0.9055,-0.9062,-0.9078,-0.9071,-0.9076,-0.9089,-0.9096,-0.9112,-0.9094,-0.9115,-0.9116,-0.9112,-0.9145,-0.9149,-0.9176,-0.9135,-0.9135,-0.9136,0,-0.8969,-0.8982,-0.9011,-0.9024,-0.9031,-0.9044,-0.906,-0.9073,-0.9086,-0.9089,-0.91,-0.9101,-0.9119,-0.9108,-0.9135,-0.9122,-0.9131,-0.9136,-0.9137,-0.914,-0.9127,-0.9149,-0.9185,-0.9189,-0.9142,-0.9141,-0.9141,0,-0.8988,-0.9013,-0.9034,-0.904,-0.9056,-0.9066,-0.9073,-0.9085,-0.9095,-0.9109,-0.9115,-0.9131,-0.914,-0.9152,-0.9157,-0.9149,-0.9184,-0.9173,-0.9188,-0.9188,-0.9195,-0.9195,-0.9234,-0.92,-0.92,-0.92,-0.92,0,-0.9017,-0.9035,-0.9043,-0.9056,-0.9076,-0.908,-0.91,-0.9107,-0.9118,-0.9132,-0.9132,-0.9146,-0.9151,-0.9166,-0.917,-0.9192,-0.9196,-0.92,-0.9201,-0.92,-0.92,-0.9206,-0.9205,-0.9201,-0.9201,-0.9201,-0.9201,0,-0.9042,-0.9048,-0.9071,-0.9084,-0.9087,-0.9102,-0.9113,-0.9126,-0.9132,-0.915,-0.9155,-0.9164,-0.9182,-0.9188,-0.9209,-0.9212,-0.9237,-0.9236,-0.9233,-0.9233,-0.9248,-0.9247,-0.9293,-0.9299,-0.9261,-0.9261,-0.9261,0,-0.906,-0.9074,-0.9089,-0.9099,-0.9106,-0.9122,-0.9132,-0.9136,-0.9147,-0.9163,-0.9174,-0.9191,-0.9205,-0.9234,-0.9242,-0.9259,-0.9259,-0.9274,-0.9261,-0.9261,-0.926,-0.9259,-0.9261,-0.9276,-0.9277,-0.9277,-0.9277,0,-0.9093,-0.9095,-0.911,-0.9125,-0.9137,-0.915,-0.9162,-0.917,-0.9176,-0.9188,-0.9206,-0.9217,-0.9239,-0.9257,-0.9274,-0.9282,-0.9281,-0.9281,-0.9286,-0.9285,-0.9283,-0.9285,-0.924,-0.928,-0.928,-0.928,-0.9279,-0.9279,-0.9116,-0.9129,-0.9141,-0.9157,-0.9167,-0.9178,-0.9191,-0.9198,-0.9213,-0.9231,-0.9233,-0.9253,-0.9266,-0.9288,-0.9297,-0.9313,-0.9309,-0.9315,-0.9317,-0.9318,-0.932,-0.928,-0.9316,-0.9316,-0.9316,-0.9316,-0.9316,0,-0.9149,-0.9157,-0.9172,-0.9189,-0.9202,-0.9199,-0.9213,-0.9224,-0.9241,-0.9253,-0.9267,-0.9288,-0.9306,-0.9316,-0.9333,-0.9344,-0.9344,-0.9348,-0.9348,-0.935,-0.9322,-0.9317,-0.9348,-0.9348,-0.9348,-0.9348,-0.9348,-0.9348,-0.9168,-0.9189,-0.9193,-0.922,-0.9227,-0.9246,-0.9254,-0.9265,-0.9275,-0.9298,-0.9313,-0.9319,-0.9331,-0.9349,-0.9365,-0.9367,-0.9374,-0.9379,-0.9381,-0.9355,-0.9352,-0.9349,-0.9344,-0.938,-0.938,-0.9408,-0.9408,-0.9409]},{"header":{"parameterUnit":"m.s-1","parameterCategory":1,"la1":30.2991,"la2":30.254,"lo1":-89.0895,"lo2":-89.0444,"dy":0.0017,"dx":0.0017,"nx":28,"ny":28,"refTime":"2024-04-25T09:00:00:Z","depth":0,"parameterNumber":3,"parameterNumberName":"V-component_of_WINDS"},"data":[0,0,0,0,0,0,0,0,0,0,0,0,0,0,0,0,0,0,0,0,0,0,0,0,0,0,0,0,0,0,0,0,0,0,0,0,0,0,0,0,0,0,0,0,0,0,0,0,0,0,0,0,0,0,0,0,0,0,3.7066,3.7067,0,3.707,3.707,3.707,3.6998,3.6996,3.6994,3.6992,3.6995,3.6997,3.6998,0,0,0,0,0,0,0,0,0,0,0,0,0,3.6995,3.6997,3.7066,3.7067,3.7067,3.707,3.707,3.707,3.6998,3.6996,3.6993,3.6991,3.6994,3.6996,3.6999,0,0,0,0,0,0,0,0,0,0,0,0,0,3.7015,3.6997,3.7066,3.7031,3.7028,3.707,3.707,3.707,3.6999,3.6996,3.6993,3.699,3.6993,3.6996,3.6999,3.7075,0,0,3.7008,3.7009,0,0,0,0,0,0,0,0,3.7014,3.7018,3.7036,3.7034,3.703,3.7031,3.7046,3.7072,3.6999,3.701,3.6992,3.6989,3.7009,3.701,3.7017,3.7075,3.7075,3.7008,3.7009,3.7011,3.7011,0,0,0,0,0,0,0,3.7013,3.7017,3.7068,3.7037,3.7033,3.7014,3.7014,3.7051,3.7026,3.7009,3.7003,3.7005,3.7007,3.7015,3.7017,3.7075,3.7008,3.701,3.7012,3.7013,3.7195,3.7198,0,0,0,0,0,0,3.7016,3.7017,3.7068,3.7068,3.7015,3.7018,3.7018,3.7033,3.7025,3.7021,3.7007,3.7002,3.7011,3.7014,3.7017,3.7105,3.7011,3.7013,3.7015,3.7192,3.7196,3.72,0,0,0,0,0,0,3.7015,3.7022,3.7068,3.7041,3.7045,3.7022,3.7041,3.7035,3.7043,3.7024,3.7019,3.7021,3.7009,3.7013,3.7061,3.7104,3.7015,3.7017,3.7189,3.7194,3.7198,3.7283,0,0,0,0,0,0,3.7013,3.7022,3.7051,3.7042,3.7047,3.7113,3.7043,3.7037,3.7048,3.7041,3.7035,3.7031,3.7007,3.7057,3.7064,3.7107,3.7019,3.7185,3.7191,3.7196,3.7277,3.729,3.7302,0,0,0,0,0,3.7011,3.7074,3.7053,3.7059,3.7083,3.7115,3.7118,3.7089,3.7052,3.7081,3.7069,3.7032,3.7099,3.7063,3.707,3.7114,3.7182,3.7189,3.7196,3.7271,3.7288,3.7302,0,0,0,0,0,0,3.7088,3.7072,3.7048,3.7111,3.7115,3.7103,3.7138,3.7108,3.7123,3.7115,3.7078,3.7078,3.7132,3.7128,3.7088,3.7187,3.7134,3.7142,3.7188,3.7204,3.7217,3.7217,3.7022,0,0,0,0,0,3.7112,3.714,3.7125,3.7181,3.7185,3.7162,3.7175,3.7152,3.7155,3.7156,3.7147,3.7151,3.7173,3.7188,3.7207,3.7276,3.7273,3.7309,3.7322,3.7333,3.7341,3.7377,3.7393,3.7223,3.7223,3.7223,0,0,3.7162,3.7157,3.7177,3.7197,3.7198,3.7227,3.7164,3.7197,3.7219,3.7161,3.7206,3.72,3.7202,3.7261,3.7286,3.7259,3.7387,3.7342,3.7351,3.7353,3.7386,3.7402,3.7416,3.7228,3.7227,3.7226,0,0,3.7269,3.7268,3.7315,3.7318,3.732,3.7304,3.7315,3.7308,3.7302,3.7347,3.7305,3.7329,3.7368,3.7371,3.7377,3.7486,3.7452,3.7493,3.756,3.7595,3.7609,3.762,3.7659,3.7673,3.7501,3.7501,3.7501,0,3.7331,3.7375,3.7343,3.738,3.739,3.734,3.7387,3.739,3.7399,3.7406,3.7375,3.7423,3.742,3.7479,3.7506,3.7513,3.7525,3.7493,3.7609,3.7621,3.7631,3.7668,3.7682,3.7506,3.7505,3.7505,3.7504,0,3.7451,3.7481,3.7519,3.7529,3.7543,3.7585,3.7559,3.7577,3.7554,3.7541,3.7588,3.7583,3.76,3.7612,3.759,3.7668,3.7651,3.7616,3.7561,3.7653,3.7687,3.77,3.7513,3.7511,3.751,3.7509,0,0,3.7606,3.7598,3.7613,3.7617,3.7615,3.7638,3.7678,3.7695,3.7711,3.7718,3.775,3.7784,3.7751,3.7759,3.7736,3.7767,3.7854,3.7727,3.7727,3.7751,3.794,3.7967,3.7984,3.7831,3.7834,3.7836,3.794,0,3.771,3.7777,3.7751,3.782,3.7848,3.7801,3.7835,3.7838,3.7827,3.7849,3.7836,3.7861,3.7816,3.782,3.7849,3.7837,3.7891,3.7829,3.7861,3.7862,3.7862,3.8002,3.803,3.8129,3.7953,3.7955,3.7957,0,3.784,3.7853,3.7926,3.792,3.7931,3.7963,3.7976,3.7998,3.8,3.799,3.7999,3.7969,3.8007,3.7953,3.8004,3.7963,3.7974,3.797,3.7973,3.7975,3.7915,3.8007,3.816,3.8175,3.7977,3.7976,3.7974,0,3.7946,3.7982,3.803,3.8035,3.803,3.8053,3.8051,3.8051,3.8063,3.8075,3.8083,3.8099,3.8108,3.8121,3.8096,3.8059,3.8151,3.8095,3.8144,3.8145,3.8166,3.8165,3.8322,3.8173,3.8173,3.8172,3.8172,0,3.8065,3.8111,3.8078,3.8108,3.8158,3.8127,3.8178,3.8171,3.8171,3.8198,3.8158,3.8184,3.815,3.8173,3.8154,3.82,3.8204,3.8197,3.8191,3.82,3.8201,3.8207,3.82,3.8176,3.8175,3.8175,3.8174,0,3.8192,3.8172,3.8221,3.8212,3.8211,3.8249,3.824,3.8267,3.8254,3.8289,3.8295,3.8274,3.8299,3.8275,3.8299,3.8286,3.8348,3.8332,3.8347,3.8343,3.8393,3.8389,3.856,3.8581,3.8418,3.842,3.8421,0,3.827,3.8304,3.8299,3.8315,3.8316,3.8342,3.8354,3.8324,3.8339,3.8344,3.8371,3.8392,3.8408,3.845,3.8437,3.8455,3.8439,3.8498,3.8442,3.845,3.844,3.8439,3.8442,3.8509,3.8511,3.8513,3.8514,0,3.8409,3.8397,3.8417,3.8434,3.8451,3.8462,3.847,3.8485,3.8455,3.8473,3.8498,3.8511,3.8535,3.8557,3.8571,3.8569,3.8537,3.8532,3.8544,3.8554,3.8562,3.8559,3.8379,3.8528,3.8527,3.8526,3.8525,3.8525,3.8514,3.8543,3.8544,3.8567,3.857,3.8579,3.8604,3.8594,3.8615,3.8633,3.8614,3.8645,3.8646,3.8661,3.8663,3.8687,3.8662,3.868,3.8684,3.8689,3.8697,3.8558,3.8689,3.8688,3.8688,3.8688,3.8687,0,3.8651,3.865,3.8672,3.8685,3.8704,3.8672,3.868,3.8697,3.8726,3.8729,3.8746,3.8775,3.8797,3.8785,3.8803,3.8825,3.881,3.883,3.8829,3.8829,3.8718,3.8705,3.8842,3.8842,3.8842,3.8842,3.8842,3.8842,3.8725,3.8773,3.8761,3.8809,3.8807,3.8838,3.8845,3.8853,3.8856,3.889,3.8908,3.89,3.8898,3.8916,3.8934,3.893,3.8939,3.8964,3.8955,3.8852,3.8836,3.8822,3.881,3.8966,3.8967,3.9064,3.9065,3.9066]}]]